Preview of NWS' New Version of Forecast
This preview is not operational and should not be used for support decisions.

Regional Weather Roundup (RWR)

Issued by National Weather Service (NWS)

                            
000
ASUS43 KLSX 262007
RWRMO 

WEATHER SUMMARY FOR MISSOURI
NATIONAL WEATHER SERVICE SPRINGFIELD MO
300 PM CDT TUE MAR 26 2019

NOTE: "FAIR" INDICATES FEW OR NO CLOUDS BELOW 12,000 FEET WITH NO
       SIGNIFICANT WEATHER AND/OR OBSTRUCTIONS TO VISIBILITY.
       CURRENT SKY AND/OR WEATHER CONDITIONS ARE NOT AVAILABLE FOR
       CHILLICOTHE AND FARMINGTON.

MOZ001>031-035>038-043-044-053-054-262100-
...NORTHERN AND WESTERN MISSOURI...
  
CITY           SKY/WX    TMP DP  RH WIND       PRES   REMARKS
KANSAS CTY INT PTSUNNY   58  39  49 S9        30.33F                  
KANSAS C DTWN  SUNNY     61  38  42 VRB5      30.33F                  
LEE'S SUMMIT   CLOUDY    58  38  47 MISG      30.34F                  
ST JOSEPH      MOSUNNY   60  42  51 VRB7      30.33F                  
CHILLICOTHE      N/A     56  35  45 VRB5      30.36F                  
KIRKSVILLE     SUNNY     51  26  37 CALM      30.38F                  
     
$$
MOZ066>068-077>081-088>096-101>105-262100-
...SOUTHWEST MISSOURI...
  
CITY           SKY/WX    TMP DP  RH WIND       PRES   REMARKS
SPRINGFIELD    SUNNY     61  37  41 N8        30.32F                  
JOPLIN         SUNNY     61  37  41 W5        30.34F                  
BRANSON        PTSUNNY   57  37  47 NW6       30.34F                  
               
$$
MOZ032>034-039>042-045>050-055>058-069>072-262100-
...CENTRAL MISSOURI...  
  
CITY           SKY/WX    TMP DP  RH WIND       PRES   REMARKS
COLUMBIA       SUNNY     55  22  27 N5        30.36F                  
JEFFERSON CITY SUNNY     57  23  26 NE10      30.36F                  
ROLLA          SUNNY     55  21  26 N10G17    30.35F                  
SEDALIA        SUNNY     57  35  43 VRB5      30.36F                  
WHITEMAN AFB   MOSUNNY   60  37  43 E6        30.31F                  
WARRENSBURG    MOSUNNY   59  36  41 N3        30.35F                  
OSAGE BEACH    SUNNY     58  32  37 N8        30.36F                  
               
$$
MOZ051-052-059>065-262100-
...EAST CENTRAL MISSOURI...
  
CITY           SKY/WX    TMP DP  RH WIND       PRES   REMARKS
ST LOUIS INTL  MOSUNNY   51  25  36 CALM      30.39F                  
SPIRIT OF STL  SUNNY     53  26  35 VRB3      30.38F                  
ST CHARLES     SUNNY     53  31  42 NE6       30.39F                  
                   
$$
MOZ072>076-082>087-097>100-106>115-262100-
...SOUTH CENTRAL AND SOUTHEAST MISSOURI...
  
CITY           SKY/WX    TMP DP  RH WIND       PRES   REMARKS
CAPE GIRARDEAU FAIR      54  24  31 NE12      30.35F                  
FARMINGTON     SUNNY     52  25  35 CALM      30.37F                  
POPLAR BLUFF   FAIR      54  34  46 E12       30.34F                  
WEST PLAINS    SUNNY     59  36  42 N10G18    30.33F                  
                                       
$$